{"data":{"norad_id":66459,"intl_designator":"2025-262D","name":"STARLINK-35449","alt_names":[],"object_type":"PAYLOAD","status":"ACTIVE","operator":null,"country":"US","launch_date":"2025-11-15","launch_site_code":"AFETR","launch_vehicle":null,"mission":null,"orbit_class":"UNKNOWN","rcs_meters":null,"size_class":null,"mass_kg":null,"dimensions":null,"purposes":["comms"],"wikipedia_slug":null,"has_3d_model":false,"image_url":null,"decayed_at":null,"tle_current":{"epoch":"2026-09-20T08:03:35.136576Z","epoch_age_seconds":103520,"freshness":"FRESH","line1":"1 66459U 25262D   26263.33582334  .00008575  00000+0  32063-3 0  9998","line2":"2 66459  42.9980 277.0319 0001076 278.4278  81.6451 15.27592343 48676","mean_motion":15.27592343,"eccentricity":0.0001076,"inclination_deg":42.998,"raan_deg":277.0319,"arg_perigee_deg":278.4278,"mean_anomaly_deg":81.6451,"bstar":0.00032063,"rev_number":4867,"period_min":94.265987034998,"perigee_km":482.27387725901,"apogee_km":483.75039655327,"semimajor_km":6861.1491369061,"source":"CELESTRAK","updated_at":"2026-09-21T09:00:35.912911Z"}}}